Date String (YYYY-MM-DD hh:mm:ss) UTC,Instrument flags,Ambient pressure (hPa),Sample flow (lpm),Bypass flow (lpm),Sample temperature (°C),Ambient temperature (°C),ASC tube jacket temperature (°C),LED temperature (°C),Box temperature (°C),Sample RH (%),Span deviation,Mass concentration (μg/m³),Mass concentration (μg/m³),Mass concentration (μg/m³)
DateTimeUTC,F1_M11,P_M11,Q1_M11,Q2_M11,T1_M11,T2_M11,T3_M11,T4_M11,T5_M11,U1_M11,ZSPAN_M11,X0_M11,X2_M11,X1_M11
2022-09-19 14:00:00,,0826.5,4.99,0.00,30.5,28.9,00.0,39.3,32.2,16.5,0000.0,0007.29,0003.39,0002.92
2022-09-19 14:01:00,,0826.5,5.02,0.00,30.5,28.9,00.0,39.3,32.2,16.5,0000.0,0007.08,0003.38,0002.95
2022-09-19 14:02:00,,0826.5,4.99,0.00,30.5,29.0,00.0,39.3,32.3,16.7,0000.0,0007.03,0003.41,0003.08
2022-09-19 14:03:00,,0826.5,5.01,0.00,30.5,29.0,00.0,39.3,32.3,18.1,0000.0,0007.12,0003.48,0003.15
2022-09-19 14:04:00,,0826.5,4.99,0.00,30.5,29.1,00.0,39.3,32.3,19.1,0000.0,0007.59,0003.60,0003.27
2022-09-19 14:05:00,,0826.5,5.01,0.00,30.5,29.1,00.0,39.3,32.3,18.5,0000.0,0007.97,0003.68,0003.34
2022-09-19 14:06:00,,0826.5,4.99,0.00,30.6,29.2,00.0,39.3,32.3,20.1,0000.0,0008.13,0003.83,0003.47
2022-09-19 14:07:00,,0826.6,5.01,0.00,30.6,29.2,00.0,39.3,32.4,20.5,0000.0,0008.21,0004.05,0003.64
2022-09-19 14:08:00,,0826.7,5.00,0.00,30.6,29.2,00.0,39.3,32.4,20.9,0000.0,0008.89,0004.27,0003.82
2022-09-19 14:09:00,,0826.7,5.01,0.00,30.6,29.3,00.0,39.3,32.4,22.0,0000.0,0009.72,0004.47,0003.97
2022-09-19 14:10:00,,0826.7,4.99,0.00,30.6,29.3,00.0,39.3,32.4,22.3,0000.0,0009.99,0004.64,0004.09
2022-09-19 14:11:00,,0826.7,5.00,0.00,30.6,29.3,00.0,39.3,32.4,21.4,0000.0,0010.29,0004.80,0004.20
2022-09-19 14:12:00,,0826.7,5.00,0.00,30.7,29.4,00.0,39.4,32.5,20.7,0000.0,0010.51,0004.95,0004.31
2022-09-19 14:13:00,,0826.6,5.01,0.00,30.7,29.4,00.0,39.4,32.5,20.6,0000.0,0010.70,0005.07,0004.38
2022-09-19 14:14:00,,0826.7,4.99,0.00,30.7,29.4,00.0,39.4,32.5,20.7,0000.0,0011.36,0005.16,0004.45
2022-09-19 14:15:00,,0826.6,5.00,0.00,30.7,28.9,00.0,39.4,32.5,20.9,0000.0,0011.25,0005.20,0004.46
2022-09-19 14:16:00,,0826.5,5.00,0.00,30.7,27.5,00.0,39.4,32.4,21.1,0000.0,0010.81,0005.23,0004.53
2022-09-19 14:17:00,,0826.5,5.00,0.00,30.6,27.0,00.0,39.3,32.3,19.3,0000.0,0010.58,0005.19,0004.53
2022-09-19 14:18:00,,0826.5,5.00,0.00,30.6,27.2,00.0,39.3,32.2,18.1,0000.0,0010.08,0005.08,0004.44
2022-09-19 14:19:00,,0826.5,5.00,0.00,30.5,27.5,00.0,39.2,32.1,19.6,0000.0,0009.49,0005.00,0004.36
2022-09-19 14:20:00,,0826.6,5.00,0.00,30.5,27.8,00.0,39.2,32.1,21.8,0000.0,0008.97,0004.97,0004.34
2022-09-19 14:21:00,,0826.6,5.00,0.00,30.4,28.1,00.0,39.2,32.1,21.7,0000.0,0009.08,0004.98,0004.36
2022-09-19 14:22:00,,0826.6,5.00,0.00,30.4,28.3,00.0,39.2,32.1,21.8,0000.0,0009.61,0005.04,0004.41
2022-09-19 14:23:00,,0826.6,5.00,0.00,30.4,28.4,00.0,39.2,32.1,22.0,0000.0,0009.76,0005.08,0004.43
2022-09-19 14:24:00,,0826.7,5.00,0.00,30.4,28.6,00.0,39.1,32.1,22.0,0000.0,0009.92,0005.11,0004.43
2022-09-19 14:25:00,,0826.7,4.99,0.00,30.4,28.7,00.0,39.1,32.1,21.7,0000.0,0009.49,0005.11,0004.44
2022-09-19 14:26:00,,0826.7,5.01,0.00,30.4,28.8,00.0,39.1,32.2,21.7,0000.0,0009.62,0005.13,0004.46
2022-09-19 14:27:00,,0826.6,4.99,0.00,30.4,28.9,00.0,39.1,32.2,21.8,0000.0,0009.92,0005.23,0004.49
2022-09-19 14:28:00,,0826.6,5.01,0.00,30.4,28.9,00.0,39.1,32.2,22.4,0000.0,0010.58,0005.33,0004.55
2022-09-19 14:29:00,,0826.6,4.99,0.00,30.4,29.0,00.0,39.1,32.2,22.7,0000.0,0011.87,0005.52,0004.69
2022-09-19 14:30:00,,0826.6,5.00,0.00,30.4,29.1,00.0,39.2,32.2,23.0,0000.0,0012.83,0005.65,0004.82
2022-09-19 14:31:00,,0826.6,4.99,0.00,30.5,29.1,00.0,39.2,32.3,22.9,0000.0,0013.50,0005.75,0004.91
2022-09-19 14:32:00,,0826.5,5.01,0.00,30.5,29.2,00.0,39.2,32.3,22.6,0000.0,0015.24,0005.82,0004.95
2022-09-19 14:33:00,,0826.5,4.99,0.00,30.5,29.2,00.0,39.2,32.3,23.3,0000.0,0016.36,0005.86,0004.98
2022-09-19 14:34:00,,0826.5,5.01,0.00,30.5,29.2,00.0,39.2,32.3,23.5,0000.0,0017.48,0005.97,0005.06
2022-09-19 14:35:00,,0826.5,4.99,0.00,30.5,29.2,00.0,39.2,32.3,23.4,0000.0,0018.32,0006.04,0005.14
2022-09-19 14:36:00,,0826.5,5.01,0.00,30.6,29.3,00.0,39.2,32.4,23.4,0000.0,0018.57,0006.11,0005.21
2022-09-19 14:37:00,,0826.5,4.99,0.00,30.6,29.3,00.0,39.3,32.4,23.3,0000.0,0018.51,0006.20,0005.27
2022-09-19 14:38:00,,0826.5,5.00,0.00,30.6,29.4,00.0,39.3,32.4,23.3,0000.0,0018.43,0006.18,0005.29
2022-09-19 14:39:00,,0826.6,4.99,0.00,30.6,29.4,00.0,39.3,32.4,23.2,0000.0,0018.29,0006.16,0005.30
2022-09-19 14:40:00,,0826.6,5.00,0.00,30.7,28.9,00.0,39.3,32.5,23.2,-000.1,0017.87,0006.10,0005.27
2022-09-19 14:41:00,,0826.5,5.00,0.00,30.6,27.6,00.0,39.3,32.4,23.2,-000.0,0016.84,0006.05,0005.24
2022-09-19 14:42:00,,0826.5,5.01,0.00,30.6,27.0,00.0,39.2,32.3,23.0,0000.0,0016.38,0006.03,0005.22
2022-09-19 14:43:00,,0826.5,5.01,0.00,30.5,27.2,00.0,39.2,32.2,23.5,0000.0,0015.08,0006.04,0005.22
2022-09-19 14:44:00,,0826.5,5.00,0.00,30.4,27.5,00.0,39.1,32.0,23.3,0000.0,0013.62,0006.02,0005.24
2022-09-19 14:45:00,,0826.5,4.99,0.00,30.4,27.8,00.0,39.1,32.0,23.1,0000.0,0012.76,0005.99,0005.22
2022-09-19 14:46:00,,0826.5,5.00,0.00,30.3,28.1,00.0,39.1,32.0,23.5,0000.0,0011.90,0005.96,0005.19
2022-09-19 14:47:00,,0826.5,5.00,0.00,30.3,28.3,00.0,39.1,32.0,23.1,0000.0,0011.78,0005.95,0005.16
2022-09-19 14:48:00,,0826.5,5.01,0.00,30.3,28.5,00.0,39.1,32.0,22.9,0000.0,0011.69,0005.91,0005.14
2022-09-19 14:49:00,,0826.5,4.98,0.00,30.3,28.6,00.0,39.1,32.1,23.4,-000.0,0011.78,0005.90,0005.12
2022-09-19 14:50:00,,0826.5,5.00,0.00,30.3,28.7,00.0,39.1,32.1,23.5,0000.0,0011.78,0005.89,0005.09
2022-09-19 14:51:00,,0826.5,4.99,0.00,30.3,28.8,00.0,39.1,32.1,23.5,0000.0,0011.99,0005.90,0005.08
2022-09-19 14:52:00,,0826.5,5.01,0.00,30.3,28.9,00.0,39.1,32.1,23.6,0000.0,0012.56,0005.93,0005.10
2022-09-19 14:53:00,,0826.5,5.01,0.00,30.4,28.9,00.0,39.1,32.2,24.0,0000.0,0012.72,0005.97,0005.12
2022-09-19 14:54:00,,0826.5,4.99,0.00,30.4,29.0,00.0,39.1,32.2,24.1,0000.0,0012.38,0005.99,0005.14
2022-09-19 14:55:00,,0826.5,5.01,0.00,30.4,29.0,00.0,39.1,32.2,24.0,0000.0,0012.11,0005.97,0005.13
2022-09-19 14:56:00,,0826.5,5.00,0.00,30.4,29.1,00.0,39.1,32.2,24.1,0000.0,0012.08,0005.96,0005.12
2022-09-19 14:57:00,,0826.5,5.00,0.00,30.4,29.1,00.0,39.1,32.2,24.0,0000.0,0012.16,0005.97,0005.13
2022-09-19 14:58:00,,0826.5,4.99,0.00,30.5,29.2,00.0,39.1,32.3,23.8,0000.0,0012.07,0005.98,0005.14
2022-09-19 14:59:00,,0826.5,5.01,0.00,30.5,29.2,00.0,39.2,32.3,24.1,0000.0,0012.37,0005.97,0005.11
